PAC152 KMIA-KMSY

Flight info

Callsign PAC152
Flight time N/A
Altitude 10000
Route KMIA/26R N0164A100 DHP JEKPA CHRGE PNSRE HRVRD ZETON POSUM KMSY/I02
Aircraft C208/M-V/N

Departure

Time 2026-05-05 16:13
Airport Miami International Airport (KMIA)

Arrival

Time N/A
Airport Louis Armstrong New Orleans International Airport (KMSY)
Time Latitude Longitude Altitude Speed Heading
2026-05-05 15:56 25.80553 -80.28184 24 ft 0 kts 178°
2026-05-05 16:03 25.80548 -80.28191 26 ft 3 kts 263°
2026-05-05 16:03 25.80544 -80.28223 24 ft 6 kts 249°
2026-05-05 16:04 25.80522 -80.28248 24 ft 1 kts 194°
2026-05-05 16:04 25.80521 -80.28248 24 ft 0 kts 187°
2026-05-05 16:07 25.80520 -80.28249 24 ft 2 kts 187°
2026-05-05 16:08 25.80493 -80.28225 24 ft 8 kts 124°
2026-05-05 16:08 25.80483 -80.28152 23 ft 11 kts 88°
2026-05-05 16:08 25.80485 -80.28054 22 ft 14 kts 89°
2026-05-05 16:08 25.80491 -80.27944 22 ft 14 kts 88°
2026-05-05 16:09 25.80497 -80.27834 23 ft 14 kts 88°
2026-05-05 16:09 25.80501 -80.27723 23 ft 15 kts 86°
2026-05-05 16:10 25.80478 -80.27646 22 ft 0 kts 141°
2026-05-05 16:11 25.80395 -80.27692 22 ft 10 kts 262°
2026-05-05 16:12 25.80383 -80.27924 21 ft 70 kts 267°
2026-05-05 16:12 25.80321 -80.29641 267 ft 137 kts 270°
2026-05-05 16:13 25.80053 -80.33278 630 ft 176 kts 269°
2026-05-05 16:13 25.80039 -80.34654 731 ft 179 kts 280°
2026-05-05 16:13 25.80447 -80.35937 857 ft 177 kts 301°
2026-05-05 16:14 25.81644 -80.38304 1084 ft 171 kts 303°
2026-05-05 16:14 25.82761 -80.40614 1329 ft 170 kts 301°
2026-05-05 16:15 25.83879 -80.42922 1576 ft 169 kts 302°
2026-05-05 16:15 25.84977 -80.45192 1820 ft 164 kts 303°
2026-05-05 16:16 25.86034 -80.47381 2056 ft 157 kts 303°
2026-05-05 16:16 25.87043 -80.49468 2306 ft 150 kts 302°
2026-05-05 16:17 25.87058 -80.49499 2310 ft 150 kts 301°
2026-05-05 16:17 25.87075 -80.49534 2383 ft 150 kts 301°